{"data":{"norad_id":68963,"epoch":"2026-09-19T21:47:21.060096Z","epoch_age_seconds":70539,"freshness":"FRESH","line1":"1 68963U 26099N   26262.90788264  .00019734  00000+0  59369-3 0  9998","line2":"2 68963  53.1578  78.5438 0001165  85.4615 274.6521 15.34397744 21816","mean_motion":15.34397744,"eccentricity":0.0001165,"inclination_deg":53.1578,"raan_deg":78.5438,"arg_perigee_deg":85.4615,"mean_anomaly_deg":274.6521,"bstar":0.00059369,"rev_number":2181,"period_min":93.847896064164,"perigee_km":461.9129868536,"apogee_km":463.50690419191,"semimajor_km":6840.8469455228,"source":"CELESTRAK","updated_at":"2026-09-20T09:00:44.053858Z"}}